Location: Bennemühlen
(52.5740°N, 9.7135°E)
Time: 06:02:26
(UTC+00:00)

A-11 Canister half - Pass Details

Date: 18 February 2026
Orbit: 1512 x 1687 km, 47.2° (Epoch: 8 March)

Event Time Altitude Azimuth Distance (km) Brightness Sun altitude
Rises 03:03:22 0° 286° (WNW) 4,866 - -31.8°
Reaches altitude 10° 03:07:10 10° 275° (W) 3,850 - -31.2°
Maximum altitude 03:14:42 26° 224° (SW) 2,722 - -30.2°
Exits shadow 03:19:43 17° 184° (S) 3,223 10.4 -29.5°
Drops below altitude 10° 03:22:03 10° 172° (S) 3,730 10.9 -29.1°
Sets 03:25:41 0° 161° (SSE) 4,688 11.6 -28.6°
